Total_Precipitation_Accumulation
0.00 0.00 0.00 0.00 0.00 0.00 0.00 0.00 0.01 0.01 0.01 0.01 0.02 0.02 0.02 0.01 0.04 0.19 0.05 0.03 0.04 0.01 0.00 0.00 0.01 0.01 0.01 0.01 0.02 0.04 0.05 0.06 0.06 0.05 0.05 0.05 0.05 0.06 0.06 0.05 0.06 0.09 0.11 0.10 0.08 0.07 0.05 0.03 0.01
0.00 0.00 0.00 0.00 0.00 0.00 0.00 0.00 0.01 0.01 0.01 0.01 0.01 0.01 0.00 0.00 0.00 0.01 0.01 0.02 0.03 0.01 0.00 0.00 0.00 0.01 0.01 0.01 0.02 0.03 0.05 0.05 0.05 0.04 0.04 0.04 0.05 0.05 0.06 0.06 0.08 0.12 0.14 0.12 0.08 0.05 0.03 0.01 0.00
0.00 0.00 0.00 0.00 0.00 0.00 0.01 0.02 0.02 0.01 0.02 0.02 0.02 0.01 0.01 0.00 0.00 0.00 0.01 0.02 0.02 0.00 0.00 0.00 0.01 0.01 0.01 0.00 0.01 0.02 0.03 0.03 0.04 0.04 0.03 0.04 0.04 0.05 0.06 0.10 0.13 0.15 0.15 0.15 0.12 0.07 0.04 0.01 0.00
0.00 0.00 0.00 0.00 0.00 0.00 0.01 0.02 0.02 0.01 0.02 0.02 0.01 0.01 0.01 0.00 0.00 0.00 0.01 0.01 0.01 0.01 0.00 0.00 0.01 0.01 0.01 0.01 0.01 0.01 0.02 0.03 0.03 0.03 0.04 0.04 0.05 0.05 0.09 0.16 0.22 0.21 0.18 0.21 0.20 0.16 0.10 0.04 0.02
0.00 0.00 0.00 0.00 0.00 0.00 0.00 0.01 0.03 0.01 0.01 0.01 0.01 0.01 0.01 0.00 0.00 0.00 0.01 0.01 0.01 0.02 0.00 0.00 0.01 0.02 0.01 0.01 0.01 0.01 0.02 0.04 0.06 0.06 0.05 0.06 0.06 0.07 0.12 0.21 0.23 0.22 0.22 0.23 0.20 0.14 0.07 0.05 0.05
0.00 0.00 0.00 0.00 0.00 0.00 0.00 0.01 0.02 0.02 0.01 0.01 0.01 0.01 0.02 0.01 0.01 0.01 0.01 0.01 0.01 0.02 0.00 0.00 0.01 0.03 0.02 0.01 0.02 0.03 0.04 0.05 0.07 0.07 0.07 0.05 0.05 0.07 0.12 0.17 0.21 0.23 0.20 0.15 0.12 0.09 0.08 0.09 0.09
0.00 0.00 0.00 0.00 0.00 0.00 0.01 0.01 0.02 0.02 0.02 0.02 0.02 0.02 0.02 0.01 0.01 0.01 0.01 0.03 0.03 0.02 0.01 0.01 0.02 0.02 0.02 0.01 0.02 0.03 0.04 0.04 0.05 0.05 0.04 0.03 0.05 0.07 0.11 0.15 0.20 0.21 0.14 0.09 0.09 0.07 0.06 0.06 0.06
0.00 0.00 0.00 0.00 0.00 0.00 0.01 0.02 0.02 0.03 0.06 0.04 0.02 0.02 0.03 0.01 0.01 0.02 0.03 0.08 0.10 0.07 0.04 0.04 0.05 0.02 0.01 0.01 0.01 0.01 0.02 0.02 0.02 0.02 0.02 0.04 0.08 0.09 0.12 0.11 0.12 0.12 0.08 0.05 0.03 0.02 0.01 0.01 0.01
0.00 0.00 0.00 0.00 0.00 0.00 0.01 0.02 0.03 0.03 0.04 0.03 0.01 0.02 0.05 0.01 0.01 0.02 0.05 0.08 0.14 0.19 0.18 0.16 0.10 0.03 0.01 0.01 0.00 0.00 0.00 0.00 0.01 0.02 0.03 0.07 0.12 0.13 0.14 0.09 0.09 0.06 0.03 0.01 0.01 0.00 0.00 0.00 0.00
0.00 0.00 0.00 0.00 0.00 0.00 0.00 0.02 0.02 0.02 0.02 0.02 0.01 0.02 0.06 0.02 0.01 0.03 0.07 0.09 0.10 0.25 0.25 0.08 0.06 0.01 0.00 0.00 0.00 0.00 0.00 0.00 0.01 0.05 0.04 0.09 0.16 0.19 0.15 0.11 0.06 0.02 0.01 0.01 0.00 0.00 0.00 0.00 0.00
0.00 0.00 0.00 0.00 0.00 0.00 0.00 0.01 0.02 0.02 0.03 0.03 0.02 0.05 0.04 0.02 0.02 0.05 0.09 0.09 0.07 0.06 0.05 0.03 0.02 0.00 0.00 0.00 0.00 0.00 0.01 0.01 0.02 0.03 0.05 0.10 0.11 0.08 0.08 0.10 0.07 0.04 0.02 0.02 0.02 0.00 0.00 0.00 0.00
0.00 0.00 0.00 0.00 0.00 0.00 0.00 0.00 0.01 0.02 0.02 0.04 0.06 0.11 0.10 0.03 0.03 0.06 0.11 0.11 0.12 0.07 0.03 0.01 0.01 0.01 0.00 0.00 0.00 0.00 0.01 0.01 0.02 0.02 0.02 0.07 0.11 0.11 0.09 0.12 0.11 0.09 0.07 0.06 0.04 0.02 0.00 0.00 0.00
0.00 0.00 0.00 0.00 0.00 0.00 0.00 0.00 0.00 0.01 0.02 0.03 0.05 0.09 0.09 0.03 0.03 0.07 0.11 0.14 0.18 0.14 0.05 0.02 0.01 0.00 0.00 0.00 0.00 0.00 0.00 0.01 0.01 0.01 0.02 0.04 0.07 0.07 0.08 0.08 0.08 0.06 0.06 0.05 0.04 0.01 0.01 0.01 0.00
0.00 0.00 0.00 0.00 0.00 0.00 0.00 0.00 0.00 0.00 0.01 0.01 0.03 0.04 0.06 0.04 0.04 0.07 0.11 0.16 0.21 0.18 0.07 0.04 0.02 0.01 0.01 0.01 0.00 0.00 0.00 0.02 0.02 0.03 0.03 0.03 0.05 0.08 0.08 0.09 0.10 0.09 0.07 0.07 0.05 0.03 0.02 0.02 0.02
0.00 0.00 0.00 0.00 0.00 0.00 0.00 0.00 0.00 0.00 0.00 0.00 0.01 0.02 0.04 0.06 0.05 0.06 0.12 0.18 0.30 0.25 0.11 0.08 0.04 0.03 0.02 0.01 0.01 0.01 0.02 0.04 0.05 0.06 0.05 0.04 0.05 0.10 0.12 0.14 0.15 0.14 0.12 0.11 0.09 0.07 0.05 0.05 0.04
0.00 0.00 0.00 0.00 0.00 0.00 0.00 0.00 0.00 0.00 0.00 0.00 0.00 0.01 0.01 0.03 0.04 0.04 0.08 0.20 0.33 0.29 0.22 0.15 0.06 0.05 0.04 0.02 0.01 0.01 0.03 0.05 0.07 0.09 0.08 0.07 0.08 0.12 0.18 0.23 0.26 0.26 0.25 0.24 0.22 0.20 0.16 0.13 0.11
0.00 0.00 0.00 0.00 0.00 0.00 0.00 0.00 0.00 0.00 0.00 0.00 0.00 0.00 0.02 0.04 0.04 0.05 0.08 0.15 0.24 0.28 0.22 0.12 0.09 0.06 0.05 0.04 0.03 0.04 0.06 0.08 0.10 0.12 0.12 0.14 0.19 0.26 0.36 0.46 0.47 0.43 0.40 0.37 0.34 0.31 0.29 0.26 0.23
0.00 0.00 0.00 0.00 0.00 0.00 0.00 0.00 0.00 0.00 0.00 0.00 0.00 0.00 0.00 0.02 0.03 0.04 0.07 0.14 0.28 0.35 0.29 0.22 0.14 0.08 0.10 0.12 0.11 0.13 0.15 0.19 0.23 0.28 0.35 0.43 0.52 0.60 0.66 0.67 0.63 0.55 0.50 0.49 0.48 0.43 0.37 0.31 0.25
0.00 0.00 0.00 0.00 0.00 0.00 0.00 0.00 0.00 0.00 0.00 0.00 0.00 0.00 0.00 0.01 0.02 0.05 0.13 0.29 0.47 0.46 0.36 0.25 0.19 0.21 0.26 0.31 0.34 0.47 0.57 0.65 0.82 0.96 1.04 1.07 1.07 1.02 0.98 0.92 0.85 0.74 0.67 0.59 0.47 0.40 0.32 0.26 0.21
0.00 0.00 0.00 0.00 0.00 0.00 0.00 0.00 0.00 0.00 0.00 0.00 0.00 0.00 0.00 0.01 0.02 0.05 0.13 0.31 0.46 0.46 0.39 0.36 0.43 0.47 0.50 0.67 0.87 1.09 1.28 1.46 1.64 1.76 1.75 1.68 1.53 1.37 1.24 1.11 0.98 0.83 0.73 0.61 0.47 0.36 0.28 0.22 0.18
0.00 0.00 0.00 0.00 0.00 0.00 0.00 0.00 0.00 0.00 0.00 0.00 0.00 0.00 0.00 0.01 0.03 0.05 0.10 0.17 0.32 0.44 0.48 0.54 0.70 0.82 0.92 1.12 1.33 1.61 1.91 2.12 2.13 2.02 1.92 1.81 1.64 1.46 1.27 1.09 0.95 0.83 0.68 0.55 0.41 0.30 0.22 0.17 0.13
0.00 0.00 0.00 0.00 0.00 0.00 0.00 0.00 0.00 0.00 0.00 0.00 0.00 0.00 0.00 0.01 0.02 0.04 0.08 0.14 0.24 0.36 0.46 0.58 0.78 1.08 1.41 1.78 2.06 2.25 2.36 2.37 2.20 1.96 1.75 1.49 1.29 1.14 0.99 0.90 0.83 0.68 0.52 0.39 0.28 0.19 0.14 0.10 0.07
0.00 0.00 0.00 0.00 0.00 0.00 0.00 0.00 0.00 0.00 0.00 0.00 0.00 0.01 0.01 0.02 0.03 0.04 0.09 0.16 0.30 0.41 0.58 0.77 1.03 1.41 1.79 2.09 2.32 2.44 2.36 2.15 1.87 1.55 1.26 1.00 0.85 0.79 0.72 0.63 0.52 0.38 0.28 0.22 0.16 0.12 0.10 0.08 0.06
0.00 0.00 0.00 0.00 0.00 0.00 0.00 0.00 0.00 0.00 0.01 0.01 0.01 0.02 0.03 0.03 0.04 0.06 0.10 0.17 0.31 0.51 0.72 0.92 1.16 1.51 1.83 1.96 2.09 2.04 1.95 1.73 1.40 1.08 0.83 0.64 0.53 0.43 0.35 0.31 0.26 0.21 0.15 0.12 0.10 0.08 0.07 0.06 0.05
0.00 0.00 0.00 0.00 0.00 0.00 0.00 0.00 0.01 0.02 0.02 0.02 0.02 0.04 0.04 0.04 0.05 0.08 0.14 0.22 0.35 0.53 0.73 0.88 1.04 1.26 1.45 1.58 1.69 1.57 1.36 1.13 0.89 0.68 0.52 0.40 0.33 0.28 0.22 0.16 0.12 0.09 0.07 0.06 0.05 0.04 0.04 0.04 0.04
0.00 0.00 0.00 0.00 0.00 0.00 0.00 0.01 0.03 0.04 0.04 0.03 0.03 0.04 0.05 0.07 0.10 0.14 0.20 0.27 0.40 0.51 0.65 0.76 0.81 0.89 0.93 0.93 0.93 0.87 0.76 0.63 0.51 0.41 0.32 0.25 0.19 0.14 0.10 0.07 0.05 0.04 0.04 0.03 0.03 0.02 0.02 0.02 0.02
0.00 0.00 0.00 0.00 0.00 0.00 0.00 0.02 0.06 0.06 0.05 0.04 0.04 0.04 0.08 0.12 0.15 0.20 0.26 0.32 0.38 0.42 0.47 0.47 0.45 0.47 0.45 0.41 0.39 0.37 0.33 0.29 0.25 0.21 0.16 0.11 0.08 0.06 0.04 0.03 0.02 0.02 0.02 0.01 0.01 0.01 0.01 0.02 0.03
0.00 0.00 0.00 0.00 0.00 0.00 0.00 0.02 0.04 0.08 0.08 0.06 0.05 0.06 0.10 0.14 0.18 0.24 0.28 0.29 0.28 0.27 0.26 0.24 0.23 0.22 0.20 0.18 0.16 0.15 0.13 0.11 0.09 0.08 0.07 0.05 0.04 0.02 0.02 0.01 0.01 0.01 0.01 0.01 0.01 0.01 0.01 0.02 0.03
0.00 0.00 0.00 0.00 0.00 0.00 0.00 0.03 0.05 0.10 0.13 0.12 0.10 0.08 0.12 0.18 0.26 0.30 0.30 0.24 0.19 0.17 0.15 0.14 0.14 0.12 0.10 0.09 0.08 0.07 0.06 0.05 0.04 0.03 0.03 0.02 0.02 0.01 0.01 0.01 0.01 0.01 0.01 0.01 0.02 0.02 0.03 0.03 0.04
0.00 0.00 0.00 0.00 0.00 0.00 0.01 0.07 0.06 0.15 0.24 0.23 0.17 0.17 0.22 0.31 0.37 0.37 0.31 0.20 0.14 0.10 0.09 0.09 0.09 0.08 0.08 0.07 0.06 0.05 0.04 0.03 0.02 0.02 0.02 0.01 0.01 0.01 0.01 0.01 0.01 0.01 0.01 0.01 0.02 0.03 0.03 0.05 0.05